KC1SQ Weather Reports


Display with metric or nautical units.
time (UTC)temp
F
wind
direction
speed
MPH
gust
MPH
rain 1hr
in
rain 24hr
in
rain mn
in
humidity
%
barometer
mb
20260831043301 61 5 0.0 0.0 0.00 0.00 0.00 65 1017.0
20260831042800 61 5 0.0 0.0 0.00 0.00 0.00 64 1017.0
20260831042258 61 5 0.0 0.0 0.00 0.00 0.00 64 1016.8
20260831041802 62 5 0.0 0.0 0.00 0.00 0.00 64 1017.0
20260831041758 61 5 0.0 0.0 0.00 0.00 0.00 64 1016.9
20260831041659 62 5 0.0 0.0 0.00 0.00 0.00 64 1017.0
20260831040254 62 5 0.0 0.0 0.00 0.00 0.00 64 1017.4
20260831035752 62 5 0.0 0.0 0.00 0.00 0.00 63 1016.9
20260831035250 62 5 0.0 0.0 0.00 0.00 0.00 63 1016.9
20260831034748 63 5 0.0 0.0 0.00 0.00 0.00 63 1016.9
20260831034513 63 5 0.0 0.0 0.00 0.00 0.00 63 1016.9
20260831033747 63 5 0.0 0.0 0.00 0.00 0.00 63 1016.9
20260831033246 63 5 0.0 0.0 0.00 0.00 0.00 63 1016.9
20260831032741 63 5 0.0 0.0 0.00 0.00 0.00 63 1016.7
20260831032500 64 5 0.0 0.0 0.00 0.00 0.00 62 1016.6
20260831031728 64 5 0.0 0.0 0.00 0.00 0.00 62 1016.6
20260831031221 64 5 0.0 0.0 0.00 0.00 0.00 62 1016.6
20260831030716 64 5 0.0 0.0 0.00 0.00 0.00 62 1016.7
20260831030210 64 5 0.0 0.0 0.00 0.00 0.00 62 1016.7
20260831025704 64 5 0.0 0.0 0.00 0.00 0.00 61 1016.8
20260831025158 64 5 0.0 0.0 0.00 0.00 0.00 61 1016.8
20260831024652 65 5 0.0 0.0 0.00 0.00 0.00 61 1016.9
20260831024146 65 5 0.0 0.0 0.00 0.00 0.00 61 1017.0
20260831023640 65 5 0.0 0.0 0.00 0.00 0.00 61 1017.1
20260831023134 65 5 0.0 0.0 0.00 0.00 0.00 60 1017.3
20260831022629 65 5 0.0 0.0 0.00 0.00 0.00 60 1017.1
20260831022122 65 5 0.0 1.0 0.00 0.00 0.00 59 1017.1
20260831021849 65 5 0.0 3.0 0.00 0.00 0.00 59 1017.2
20260831021110 66 346 1.0 3.0 0.00 0.00 0.00 59 1017.3
20260831021052 66 346 1.0 4.0 0.00 0.00 0.00 58 1017.1
20260831020058 67 61 1.0 4.0 0.00 0.00 0.00 59 1017.0
20260831015552 67 0 1.0 7.0 0.00 0.00 0.00 57 1016.9
20260831015046 67 12 1.0 7.0 0.00 0.00 0.00 57 1016.9
20260831014540 67 179 0.0 5.0 0.00 0.00 0.00 55 1016.7
20260831014034 67 94 0.0 0.0 0.00 0.00 0.00 57 1016.6
20260831013528 67 174 0.0 0.0 0.00 0.00 0.00 62 1016.3
20260831013022 67 174 0.0 0.0 0.00 0.00 0.00 62 1015.8
20260831012516 68 174 0.0 0.0 0.00 0.00 0.00 61 1015.7
20260831012010 68 174 0.0 0.0 0.00 0.00 0.00 62 1015.6
20260831011504 68 174 0.0 0.0 0.00 0.00 0.00 61 1015.5
20260831010958 68 174 0.0 0.0 0.00 0.00 0.00 62 1015.5
20260831010452 68 174 0.0 0.0 0.00 0.00 0.00 61 1015.3
20260831005946 68 174 0.0 0.0 0.00 0.00 0.00 60 1015.3
20260831005440 68 174 0.0 0.0 0.00 0.00 0.00 61 1015.3
20260831004934 68 174 0.0 0.0 0.00 0.00 0.00 59 1015.2
20260831004647 69 174 0.0 0.0 0.00 0.00 0.00 58 1015.2
20260831003922 69 174 0.0 0.0 0.00 0.00 0.00 57 1015.2
20260831003416 69 174 0.0 0.0 0.00 0.00 0.00 57 1015.1
20260831002910 69 174 0.0 0.0 0.00 0.00 0.00 57 1015.1
20260831002853 69 174 0.0 0.0 0.00 0.00 0.00 57 1015.2
20260831001858 70 174 0.0 0.0 0.00 0.00 0.00 57 1015.1
20260831001352 70 174 0.0 0.0 0.00 0.00 0.00 57 1015.1
20260831000846 70 174 0.0 0.0 0.00 0.00 0.00 56 1015.2
20260831000340 70 174 0.0 0.0 0.00 0.00 0.00 57 1014.9
20260830235835 70 174 0.0 0.0 0.00 0.00 0.00 56 1014.9
20260830235328 70 174 0.0 0.0 0.00 0.00 0.00 56 1014.9
20260830234823 70 174 0.0 0.0 0.00 0.00 0.00 56 1014.8
20260830234317 70 174 0.0 0.0 0.00 0.00 0.00 56 1014.8
20260830233817 70 174 0.0 0.0 0.00 0.00 0.00 55 1014.9
20260830233318 71 174 0.0 0.0 0.00 0.00 0.00 57 1014.8
20260830232816 71 174 0.0 0.0 0.00 0.00 0.00 56 1014.7
20260830232314 71 174 0.0 0.0 0.00 0.00 0.00 55 1014.8
20260830231811 71 174 0.0 0.0 0.00 0.00 0.00 55 1014.7
20260830231308 71 174 0.0 0.0 0.00 0.00 0.00 55 1014.8
20260830230807 71 174 0.0 0.0 0.00 0.00 0.00 55 1014.8
20260830230306 71 174 0.0 0.0 0.00 0.00 0.00 54 1014.8
20260830225808 71 174 0.0 0.0 0.00 0.00 0.00 54 1014.9
20260830225307 71 174 0.0 0.0 0.00 0.00 0.00 53 1014.8
20260830224805 71 174 0.0 0.0 0.00 0.00 0.00 52 1014.8
20260830224303 72 174 0.0 0.0 0.00 0.00 0.00 54 1014.8
20260830223804 72 174 0.0 2.0 0.00 0.00 0.00 53 1014.9
20260830223300 72 174 0.0 2.0 0.00 0.00 0.00 54 1014.9
20260830223028 72 174 0.0 2.0 0.00 0.00 0.00 53 1014.9
20260830222528 72 189 0.0 2.0 0.00 0.00 0.00 52 1014.8
20260830221759 72 119 0.0 2.0 0.00 0.00 0.00 53 1014.8
20260830221259 72 143 0.0 2.0 0.00 0.00 0.00 53 1014.7
20260830220800 72 140 0.0 2.0 0.00 0.00 0.00 53 1014.6
20260830220254 72 189 0.0 0.0 0.00 0.00 0.00 54 1014.7
20260830215748 72 189 0.0 0.0 0.00 0.00 0.00 54 1014.6
20260830215242 72 132 0.0 0.0 0.00 0.00 0.00 55 1014.7
20260830214736 72 132 0.0 0.0 0.00 0.00 0.00 54 1014.8
20260830214230 72 137 0.0 0.0 0.00 0.00 0.00 54 1014.8
20260830213950 72 137 0.0 1.0 0.00 0.00 0.00 55 1014.7
20260830213217 72 153 0.0 1.0 0.00 0.00 0.00 56 1014.7
20260830212933 72 125 0.0 0.0 0.00 0.00 0.00 56 1014.7
20260830212206 72 154 0.0 1.0 0.00 0.00 0.00 57 1014.8
20260830211702 72 194 0.0 1.0 0.00 0.00 0.00 59 1014.7
20260830211203 72 60 0.0 0.0 0.00 0.00 0.00 58 1014.7
20260830210704 72 182 0.0 0.0 0.00 0.00 0.00 58 1014.9
20260830210203 72 182 0.0 0.0 0.00 0.00 0.00 58 1014.9
20260830205703 72 182 0.0 0.0 0.00 0.00 0.00 59 1014.9
20260830205204 72 183 0.0 0.0 0.00 0.00 0.00 58 1014.9
20260830204704 71 186 0.0 0.0 0.00 0.00 0.00 59 1014.8
20260830204202 71 176 0.0 0.0 0.00 0.00 0.00 60 1014.9
20260830203705 71 176 0.0 0.0 0.00 0.00 0.00 60 1015.0
20260830203201 71 175 0.0 0.0 0.00 0.00 0.00 59 1015.0
20260830202659 71 175 0.0 0.0 0.00 0.00 0.00 59 1015.0
20260830202158 71 179 0.0 0.0 0.00 0.00 0.00 59 1015.1
20260830201659 71 179 0.0 0.0 0.00 0.00 0.00 59 1015.1
20260830201202 71 178 0.0 0.0 0.00 0.00 0.00 59 1015.2
20260830200658 71 178 0.0 0.0 0.00 0.00 0.00 59 1015.3
20260830200200 71 178 0.0 0.0 0.00 0.00 0.00 59 1015.2
20260830195700 71 193 0.0 0.0 0.00 0.00 0.00 58 1015.2
20260830195200 71 203 0.0 1.0 0.00 0.00 0.00 58 1015.3
20260830194656 71 202 0.0 1.0 0.00 0.00 0.00 58 1015.2
20260830194155 71 135 0.0 1.0 0.00 0.00 0.00 58 1015.3
20260830193658 71 136 0.0 1.0 0.00 0.00 0.00 58 1015.3
20260830193416 71 180 0.0 0.0 0.00 0.00 0.00 58 1015.4
20260830192656 71 182 0.0 2.0 0.00 0.00 0.00 58 1015.3
20260830192154 71 171 0.0 2.0 0.00 0.00 0.00 58 1015.3
20260830191655 71 136 0.0 1.0 0.00 0.00 0.00 58 1015.5
20260830191155 71 136 0.0 1.0 0.00 0.00 0.00 57 1015.5
20260830190919 71 178 0.0 1.0 0.00 0.00 0.00 58 1015.6
20260830190408 71 163 0.0 4.0 0.00 0.00 0.00 57 1015.7
20260830185642 71 153 0.0 4.0 0.00 0.00 0.00 58 1015.9
20260830185136 71 144 0.0 2.0 0.00 0.00 0.00 58 1015.9
20260830184852 71 172 0.0 2.0 0.00 0.00 0.00 57 1016.0
20260830184350 71 173 0.0 0.0 0.00 0.00 0.00 58 1016.1
20260830183903 71 173 0.0 0.0 0.00 0.00 0.00 57 1016.1
20260830183133 71 163 0.0 0.0 0.00 0.00 0.00 57 1016.1
20260830182900 71 162 0.0 0.0 0.00 0.00 0.00 57 1016.1
20260830182132 71 162 0.0 0.0 0.00 0.00 0.00 56 1016.4
20260830182123 71 163 0.0 0.0 0.00 0.00 0.00 55 1016.4
20260830181132 71 157 0.0 0.0 0.00 0.00 0.00 56 1016.5
20260830180628 71 157 0.0 1.0 0.00 0.00 0.00 55 1016.5
20260830180127 72 157 0.0 1.0 0.00 0.00 0.00 55 1016.4
20260830175714 72 168 0.0 0.0 0.00 0.00 0.00 54 1016.6
20260830174621 72 157 0.0 0.0 0.00 0.00 0.00 53 1016.6
20260830174120 72 185 0.0 0.0 0.00 0.00 0.00 54 1016.6
20260830173839 72 204 0.0 5.0 0.00 0.00 0.00 53 1016.7
20260830173114 72 204 0.0 5.0 0.00 0.00 0.00 52 1016.9
20260830172834 73 153 0.0 0.0 0.00 0.00 0.00 52 1016.9
20260830172110 73 160 0.0 0.0 0.00 0.00 0.00 53 1016.9
20260830171608 73 160 0.0 0.0 0.00 0.00 0.00 52 1016.9
20260830171109 73 159 0.0 0.0 0.00 0.00 0.00 53 1017.0
20260830170609 73 159 0.0 0.0 0.00 0.00 0.00 52 1017.1
20260830165557 73 173 0.0 1.0 0.00 0.00 0.00 52 1017.0
20260830165051 73 238 0.0 1.0 0.00 0.00 0.00 50 1017.0
20260830164806 73 192 0.0 0.0 0.00 0.00 0.00 52 1016.8
20260830164039 73 193 0.0 0.0 0.00 0.00 0.00 51 1016.9
20260830163754 73 192 0.0 0.0 0.00 0.00 0.00 51 1016.9
20260830163027 74 193 0.0 0.0 0.00 0.00 0.00 50 1016.9
20260830162521 74 123 0.0 0.0 0.00 0.00 0.00 49 1017.0
20260830162014 74 113 0.0 0.0 0.00 0.00 0.00 51 1016.9
20260830161509 74 96 0.0 0.0 0.00 0.00 0.00 51 1017.1
20260830161004 74 96 0.0 0.0 0.00 0.00 0.00 49 1017.0
20260830160716 74 142 0.0 0.0 0.00 0.00 0.00 50 1017.0
20260830155951 74 180 0.0 0.0 0.00 0.00 0.00 50 1017.0
20260830155444 74 215 0.0 0.0 0.00 0.00 0.00 50 1017.2
20260830154939 74 215 0.0 0.0 0.00 0.00 0.00 48 1017.2
20260830154649 74 200 0.0 0.0 0.00 0.00 0.00 49 1017.1
20260830154147 74 138 0.0 0.0 0.00 0.00 0.00 51 1017.1
20260830153645 74 136 0.0 0.0 0.00 0.00 0.00 52 1017.0
20260830152915 73 136 0.0 0.0 0.00 0.00 0.00 52 1017.1
20260830152409 73 208 0.0 0.0 0.00 0.00 0.00 54 1017.3
20260830151903 72 142 0.0 0.0 0.00 0.00 0.00 55 1017.3
20260830151616 72 142 0.0 0.0 0.00 0.00 0.00 53 1017.4
20260830150851 72 156 0.0 0.0 0.00 0.00 0.00 56 1017.4
20260830150345 71 156 0.0 0.0 0.00 0.00 0.00 55 1017.4
20260830145839 71 154 0.0 0.0 0.00 0.00 0.00 57 1017.8
20260830145333 71 154 0.0 0.0 0.00 0.00 0.00 56 1017.7
20260830144827 71 155 0.0 0.0 0.00 0.00 0.00 56 1017.7
20260830144321 71 155 0.0 0.0 0.00 0.00 0.00 54 1017.7
20260830144036 71 154 0.0 0.0 0.00 0.00 0.00 55 1017.8
20260830143309 70 155 0.0 0.0 0.00 0.00 0.00 55 1017.8
20260830142803 70 150 0.0 0.0 0.00 0.00 0.00 57 1017.7
20260830142257 70 150 0.0 0.0 0.00 0.00 0.00 56 1017.8
20260830141751 69 148 0.0 0.0 0.00 0.00 0.00 55 1017.8
20260830141245 69 132 0.0 0.0 0.00 0.00 0.00 57 1017.8
20260830141004 68 188 0.0 0.0 0.00 0.00 0.00 57 1017.7
20260830140234 68 187 0.0 0.0 0.00 0.00 0.00 58 1017.9
20260830135727 68 186 0.0 0.0 0.00 0.00 0.00 58 1017.8
20260830135221 67 129 0.0 0.0 0.00 0.00 0.00 59 1018.0
20260830134715 67 129 0.0 0.0 0.00 0.00 0.00 59 1018.0
20260830134208 66 128 0.0 0.0 0.00 0.00 0.00 58 1018.1
20260830133703 66 194 0.0 0.0 0.00 0.00 0.00 61 1018.0
20260830133419 65 206 0.0 0.0 0.00 0.00 0.00 60 1018.0
20260830132651 65 171 0.0 0.0 0.00 0.00 0.00 60 1018.1
20260830132146 65 180 0.0 0.0 0.00 0.00 0.00 61 1018.1
20260830131639 64 181 0.0 0.0 0.00 0.00 0.00 61 1018.1
20260830131353 64 181 0.0 0.0 0.00 0.00 0.00 60 1018.2
20260830130628 63 181 0.0 0.0 0.00 0.00 0.00 61 1018.1
20260830130121 63 181 0.0 0.0 0.00 0.00 0.00 61 1018.0
20260830125841 63 181 0.0 0.0 0.00 0.00 0.00 62 1018.2
20260830125108 62 181 0.0 0.0 0.00 0.00 0.00 62 1018.2
20260830124602 62 181 0.0 0.0 0.00 0.00 0.00 61 1018.2
20260830124057 62 181 0.0 0.0 0.00 0.00 0.00 61 1018.3
20260830123551 61 209 0.0 0.0 0.00 0.00 0.00 62 1018.3
20260830123313 61 209 0.0 0.0 0.00 0.00 0.00 62 1018.3
20260830122546 61 209 0.0 0.0 0.00 0.00 0.00 63 1018.4
20260830122047 60 209 0.0 0.0 0.00 0.00 0.00 63 1018.4
20260830121546 60 223 0.0 0.0 0.00 0.00 0.00 63 1018.4
20260830121311 60 223 0.0 0.0 0.00 0.00 0.00 63 1018.5
20260830120547 60 223 0.0 0.0 0.00 0.00 0.00 63 1018.4
20260830120046 60 223 0.0 0.0 0.00 0.00 0.00 64 1018.4
20260830115807 60 223 0.0 0.0 0.00 0.00 0.00 64 1018.3
20260830115306 60 223 0.0 0.0 0.00 0.00 0.00 64 1018.4
20260830114543 59 223 0.0 0.0 0.00 0.00 0.00 65 1018.4
20260830114043 59 223 0.0 0.0 0.00 0.00 0.00 65 1018.4
20260830113543 59 223 0.0 0.0 0.00 0.00 0.00 65 1018.4
20260830113042 59 223 0.0 0.0 0.00 0.00 0.00 65 1018.4
20260830112807 59 223 0.0 0.0 0.00 0.00 0.00 65 1018.3
20260830112041 59 223 0.0 0.0 0.00 0.00 0.00 66 1018.4
20260830111539 58 223 0.0 0.0 0.00 0.00 0.00 66 1018.5
20260830111259 58 223 0.0 0.0 0.00 0.00 0.00 65 1018.5
20260830110537 58 223 0.0 0.0 0.00 0.00 0.00 65 1018.4
20260830110032 58 223 0.0 0.0 0.00 0.00 0.00 65 1018.2
20260830105533 58 223 0.0 0.0 0.00 0.00 0.00 65 1018.3
20260830105033 58 223 0.0 0.0 0.00 0.00 0.00 65 1018.3
20260830104532 57 223 0.0 0.0 0.00 0.00 0.00 65 1018.2
20260830104031 57 223 0.0 0.0 0.00 0.00 0.00 65 1018.4
20260830104013 57 223 0.0 0.0 0.00 0.00 0.00 65 1018.4
20260830103032 57 223 0.0 0.0 0.00 0.00 0.00 65 1018.4
20260830102531 57 223 0.0 0.0 0.00 0.00 0.00 65 1018.5
20260830102032 57 223 0.0 0.0 0.00 0.00 0.00 65 1018.5
20260830101533 57 223 0.0 0.0 0.00 0.00 0.00 65 1018.5
20260830101029 57 223 0.0 0.0 0.00 0.00 0.00 65 1018.6
20260830100528 57 223 0.0 0.0 0.00 0.00 0.00 66 1018.6
20260830100253 56 223 0.0 0.0 0.00 0.00 0.00 66 1018.6
20260830095527 56 223 0.0 0.0 0.00 0.00 0.00 66 1018.7
20260830095028 56 223 0.0 0.0 0.00 0.00 0.00 66 1018.7
20260830094528 56 223 0.0 0.0 0.00 0.00 0.00 66 1018.8
20260830094029 56 223 0.0 0.0 0.00 0.00 0.00 66 1018.8
20260830093528 56 223 0.0 0.0 0.00 0.00 0.00 66 1018.8
20260830093254 56 223 0.0 0.0 0.00 0.00 0.00 66 1018.8
20260830092528 56 223 0.0 0.0 0.00 0.00 0.00 66 1018.9
20260830092029 56 223 0.0 0.0 0.00 0.00 0.00 66 1019.0
20260830091528 56 223 0.0 0.0 0.00 0.00 0.00 66 1019.0
20260830091028 56 223 0.0 0.0 0.00 0.00 0.00 66 1018.9
20260830090528 55 223 0.0 0.0 0.00 0.00 0.00 66 1018.9
20260830090250 55 223 0.0 0.0 0.00 0.00 0.00 66 1019.0
20260830085527 55 223 0.0 0.0 0.00 0.00 0.00 66 1019.0
20260830085027 55 223 0.0 0.0 0.00 0.00 0.00 66 1018.9
20260830084529 55 223 0.0 0.0 0.00 0.00 0.00 66 1018.8
20260830084022 55 223 0.0 0.0 0.00 0.00 0.00 66 1018.9
20260830083516 55 223 0.0 0.0 0.00 0.00 0.00 66 1018.9
20260830083010 55 223 0.0 0.0 0.00 0.00 0.00 65 1018.8
20260830082504 55 223 0.0 0.0 0.00 0.00 0.00 65 1019.0
20260830082001 55 223 0.0 0.0 0.00 0.00 0.00 65 1019.0
20260830081501 55 223 0.0 0.0 0.00 0.00 0.00 65 1018.9
20260830081001 55 223 0.0 0.0 0.00 0.00 0.00 65 1019.0
20260830080457 55 223 0.0 0.0 0.00 0.00 0.00 65 1018.9
20260830075957 55 223 0.0 0.0 0.00 0.00 0.00 65 1018.9
20260830075459 55 223 0.0 0.0 0.00 0.00 0.00 65 1019.0
20260830074957 55 223 0.0 0.0 0.00 0.00 0.00 65 1018.8
20260830074455 55 223 0.0 0.0 0.00 0.00 0.00 65 1018.8
20260830073955 55 223 0.0 0.0 0.00 0.00 0.00 65 1019.0
20260830073455 55 223 0.0 0.0 0.00 0.00 0.00 65 1019.0
20260830072955 55 223 0.0 0.0 0.00 0.00 0.00 65 1019.0
20260830072453 55 223 0.0 0.0 0.00 0.00 0.00 65 1018.9
20260830071952 55 223 0.0 0.0 0.00 0.00 0.00 66 1019.0
20260830071451 55 223 0.0 0.0 0.00 0.00 0.00 66 1018.9
20260830070951 55 223 0.0 0.0 0.00 0.00 0.00 66 1019.1
20260830070714 55 223 0.0 0.0 0.00 0.00 0.00 66 1019.0
20260830070214 55 227 0.0 0.0 0.00 0.00 0.00 66 1019.1
20260830065701 55 227 0.0 0.0 0.00 0.00 0.00 66 1019.1
20260830064943 55 227 0.0 0.0 0.00 0.00 0.00 66 1019.0
20260830064442 55 227 0.0 0.0 0.00 0.00 0.00 66 1019.0
20260830063936 55 227 0.0 0.0 0.00 0.00 0.00 66 1019.0
20260830063656 55 227 0.0 0.0 0.00 0.00 0.00 66 1019.1
20260830062924 55 227 0.0 0.0 0.00 0.00 0.00 66 1019.1
20260830062418 55 227 0.0 0.0 0.00 0.00 0.00 66 1019.2
20260830061912 55 227 0.0 0.0 0.00 0.00 0.00 66 1019.3
20260830061406 55 227 0.0 0.0 0.00 0.00 0.00 66 1019.2
20260830060900 55 227 0.0 0.0 0.00 0.00 0.00 66 1019.3
20260830060354 55 227 0.0 0.0 0.00 0.00 0.00 66 1019.3
20260830060106 55 227 0.0 0.0 0.00 0.00 0.00 66 1019.3
20260830055342 55 227 0.0 0.0 0.00 0.00 0.00 66 1019.3
20260830054836 55 227 0.0 0.0 0.00 0.00 0.00 66 1019.3
20260830054330 55 227 0.0 0.0 0.00 0.00 0.00 66 1019.6
20260830053824 55 227 0.0 0.0 0.00 0.00 0.00 66 1019.5
20260830053317 55 227 0.0 0.0 0.00 0.00 0.00 66 1019.5
20260830052812 55 227 0.0 0.0 0.00 0.00 0.00 66 1019.5
20260830052528 55 227 0.0 0.0 0.00 0.00 0.00 66 1019.5
20260830051800 56 227 0.0 0.0 0.00 0.00 0.00 66 1019.5
20260830051255 56 227 0.0 0.0 0.00 0.00 0.00 66 1019.6
20260830051011 56 227 0.0 0.0 0.00 0.00 0.00 66 1019.6
20260830050242 56 227 0.0 0.0 0.00 0.00 0.00 66 1019.6
20260830045954 56 227 0.0 0.0 0.00 0.00 0.00 66 1019.6
20260830045230 56 227 0.0 0.0 0.00 0.00 0.00 66 1019.7
20260830044724 56 227 0.0 0.0 0.00 0.00 0.00 66 1019.7
20260830044219 56 227 0.0 0.0 0.00 0.00 0.00 66 1019.7
20260830043712 56 227 0.0 0.0 0.00 0.00 0.00 65 1019.7